Ivanka pri Dunaji, Slovakia

4:21 PM CEST on April 29, 2017 (GMT +0200)
Ivanka pri Dunaji

Weather History for 11816 - November, 2013

Change the Weather History Date:

Monday, November 18, 2013

  Actual Average Record
Temperature  
Mean Temperature 42 °F -  
Max Temperature 47 °F 39 °F - ()
Min Temperature 36 °F 30 °F - ()
Degree Days  
Heating Degree Days 24    
Moisture  
Dew Point 41 °F    
Average Humidity 93    
Maximum Humidity 100    
Minimum Humidity 79    
Precipitation  
Precipitation 0.00 in - - ()
Sea Level Pressure  
Sea Level Pressure 30.09 in    
Wind  
Wind Speed 7 mph ()    
Max Wind Speed 16 mph    
Max Gust Speed -    
Visibility 2.6 miles    
Events Fog    
T = Trace of Precipitation, MM = Missing Value Source: Averaged Metar Reports

Daily Weather History Graph

Daily Weather History Graph

Search for Another Location

Airport or City:

Trip Planner

Search our weather history database for the weather conditions in past years. The results will help you decide how hot, cold, wet, or windy it might be!

Date:

Astronomy

Nov. 18, 2013 Rise Set
Actual Time 7:02 AM CET 4:09 PM CET
Civil Twilight 6:28 AM CET 4:44 PM CET
Nautical Twilight 5:50 AM CET 5:22 PM CET
Astronomical Twilight 5:13 AM CET 5:58 PM CET
Moon 4:57 PM CET (11/18) 7:36 AM CET (11/18)
Length of Visible Light 10h 15m
Length of Day
9h 07m
Full, 99% of the Moon is Illuminated
Nov 18
Full
Nov 25
Last Quarter
Dec 3
New
Dec 9
First Quarter
Dec 17
Full

Hourly Weather History & Observations

Time (CET) Temp. Windchill Dew Point Humidity Pressure Visibility Wind Dir Wind Speed Gust Speed Precip Events Conditions
12:00 AM 38 °F - 38 °F 100% 30.24 in 0 mi East 6.7 mph - - Fog Partial Fog
12:00 AM 39.2 °F 35.0 °F 37.4 °F 93% 30.21 in 0.3 mi ESE 5.8 mph - N/A Fog Fog
12:30 AM 39.2 °F 35.9 °F 39.2 °F 100% 30.21 in 0.2 mi ESE 4.6 mph - N/A Fog Fog
1:00 AM 39 °F - 39 °F 99% 30.23 in 0 mi East 4.5 mph - - Fog Heavy Fog
1:00 AM 39.2 °F 35.9 °F 39.2 °F 100% 30.18 in 0.2 mi East 4.6 mph - N/A Fog Fog
1:30 AM 39.2 °F 35.0 °F 39.2 °F 100% 30.18 in 0.2 mi East 5.8 mph - N/A Fog Fog
2:00 AM 39 °F - 39 °F 100% 30.22 in 0 mi East 4.5 mph - - Fog Partial Fog
2:00 AM 39.2 °F 35.9 °F 39.2 °F 100% 30.18 in 0.2 mi East 4.6 mph - N/A Fog Fog
2:30 AM 39.2 °F 35.9 °F 39.2 °F 100% 30.18 in 0.4 mi East 4.6 mph - N/A Fog Fog
3:00 AM 40 °F - 40 °F 98% 30.21 in 1 mi East 6.7 mph - - Fog Light Fog
3:00 AM 39.2 °F 35.0 °F 39.2 °F 100% 30.18 in 0.7 mi East 5.8 mph - N/A   Overcast
3:30 AM 39.2 °F 34.2 °F 39.2 °F 100% 30.18 in 0.6 mi ESE 6.9 mph - N/A   Overcast
4:00 AM 40 °F - 40 °F 100% 30.19 in 1 mi East 6.7 mph - -   Mist
4:00 AM 39.2 °F 35.0 °F 39.2 °F 100% 30.15 in 1.4 mi ESE 5.8 mph - N/A   Mostly Cloudy
4:30 AM 41.0 °F 35.2 °F 41.0 °F 100% 30.15 in 1.7 mi ESE 9.2 mph - N/A   Scattered Clouds
5:00 AM 40 °F - 40 °F 100% 30.17 in 2 mi ESE 8.9 mph - -   Mist
5:00 AM 41.0 °F 35.8 °F 41.0 °F 100% 30.15 in 2.2 mi ESE 8.1 mph - N/A   Partly Cloudy
5:30 AM 41.0 °F 36.4 °F 41.0 °F 100% 30.12 in - SE 6.9 mph - N/A   Partly Cloudy
6:00 AM 40 °F - 40 °F 100% 30.15 in 2 mi SE 8.9 mph - -   Mist
6:00 AM 41.0 °F 35.8 °F 41.0 °F 100% 30.12 in 2.5 mi SE 8.1 mph - N/A   Mist
6:30 AM 39.2 °F 35.0 °F 39.2 °F 100% 30.12 in 2.2 mi SE 5.8 mph - N/A   Mist
7:00 AM 39 °F - 39 °F 100% 30.15 in 2 mi SE 4.5 mph - -   Mist
7:00 AM 39.2 °F 35.9 °F 39.2 °F 100% 30.12 in 1.9 mi SE 4.6 mph - N/A   Partly Cloudy
7:30 AM 39.2 °F 35.0 °F 39.2 °F 100% 30.12 in 2.2 mi SE 5.8 mph - N/A   Mostly Cloudy
8:00 AM 41 °F - 41 °F 100% 30.15 in 2 mi SE 8.9 mph - -   Mist
8:00 AM 41.0 °F 35.8 °F 41.0 °F 100% 30.12 in - SE 8.1 mph - N/A   Mostly Cloudy
8:30 AM 42.8 °F 37.0 °F 41.0 °F 93% 30.12 in - SSE 10.4 mph - N/A   Scattered Clouds
9:00 AM 43 °F - 42 °F 92% 30.14 in 3 mi SE 8.9 mph - -   Mist
9:00 AM 42.8 °F 37.5 °F 41.0 °F 93% 30.12 in 3.1 mi SE 9.2 mph - N/A   Scattered Clouds
9:30 AM 42.8 °F 38.0 °F 41.0 °F 93% 30.12 in 4.3 mi South 8.1 mph - N/A   Mostly Cloudy
10:00 AM 44 °F - 42 °F 89% 30.14 in 4 mi South 11.2 mph - -   Mist
10:00 AM 44.6 °F 39.7 °F 41.0 °F 87% 30.12 in 4.3 mi South 9.2 mph - N/A   Mostly Cloudy
10:30 AM 46.4 °F 41.5 °F 42.8 °F 87% 30.09 in 5.0 mi South 10.4 mph - N/A   Mostly Cloudy
11:00 AM 45 °F - 42 °F 84% 30.12 in 4 mi SSE 13.4 mph - -   Mist
11:00 AM 44.6 °F 38.1 °F 41.0 °F 87% 30.09 in 4.3 mi SSE 13.8 mph - N/A   Mostly Cloudy
11:30 AM 44.6 °F 39.2 °F 41.0 °F 87% 30.09 in 4.3 mi SSE 10.4 mph - N/A   Mostly Cloudy
12:00 PM 46 °F - 42 °F 83% 30.10 in 4 mi SSE 11.2 mph - -   Mist
12:00 PM 46.4 °F 41.5 °F 42.8 °F 87% 30.06 in 4.3 mi SSE 10.4 mph - N/A   Mostly Cloudy
12:30 PM 46.4 °F 41.1 °F 42.8 °F 87% 30.06 in 4.3 mi SSE 11.5 mph - N/A   Mostly Cloudy
1:00 PM 47 °F - 43 °F 79% 30.08 in 4 mi SSE 11.2 mph - -   Mist
1:00 PM 46.4 °F 41.1 °F 42.8 °F 87% 30.06 in 4.3 mi SSE 11.5 mph - N/A   Mostly Cloudy
1:30 PM 46.4 °F 41.1 °F 42.8 °F 87% 30.04 in 4.3 mi SSE 11.5 mph - N/A   Mostly Cloudy
2:00 PM 47 °F - 43 °F 80% 30.06 in 4 mi SSE 11.2 mph - -   Mist
2:00 PM 48.2 °F - 42.8 °F 82% 30.04 in 4.3 mi SSE 11.5 mph - N/A   Mostly Cloudy
2:30 PM 48.2 °F - 42.8 °F 82% 30.04 in 3.7 mi SSE 11.5 mph - N/A   Mostly Cloudy
3:00 PM 48.2 °F - 44.6 °F 87% 30.01 in 3.7 mi SSE 11.5 mph - N/A   Mostly Cloudy
3:30 PM 48.2 °F - 42.8 °F 82% 30.01 in 3.7 mi SSE 10.4 mph - N/A   Mostly Cloudy
4:00 PM 46 °F - 43 °F 84% 30.03 in 4 mi SSE 11.2 mph - -   Mist
4:00 PM 46.4 °F 41.1 °F 42.8 °F 87% 30.01 in 3.7 mi SSE 11.5 mph - N/A   Overcast
4:30 PM 46.4 °F 41.9 °F 42.8 °F 87% 30.01 in 3.7 mi SSE 9.2 mph - N/A   Overcast
5:00 PM 46 °F - 43 °F 85% 30.03 in 4 mi SSE 6.7 mph - -   Mist
5:00 PM 46.4 °F 42.4 °F 42.8 °F 87% 30.01 in 3.7 mi SSE 8.1 mph - N/A   Overcast
5:30 PM 44.6 °F 38.8 °F 42.8 °F 93% 30.01 in 2.8 mi SSE 11.5 mph - N/A   Overcast
6:00 PM 45 °F - 43 °F 89% 30.04 in 2 mi SSE 15.7 mph - -   Mist
6:00 PM 44.6 °F 38.1 °F 42.8 °F 93% 30.01 in 2.5 mi SSE 13.8 mph - N/A   Overcast
6:30 PM 44.6 °F 38.8 °F 42.8 °F 93% 30.01 in 2.5 mi SSE 11.5 mph - N/A   Overcast
7:00 PM 45 °F - 43 °F 90% 30.04 in 2 mi SSE 8.9 mph - -   Mist
7:00 PM 44.6 °F 39.7 °F 42.8 °F 93% 30.01 in 2.5 mi SSE 9.2 mph - N/A   Overcast
7:30 PM 44.6 °F 39.7 °F 42.8 °F 93% 30.01 in 2.5 mi SSE 9.2 mph - N/A   Overcast
8:00 PM 44 °F - 42 °F 92% 30.03 in 2 mi SE 11.2 mph - -   Mist
8:00 PM 44.6 °F 38.8 °F 42.8 °F 93% 30.01 in 2.5 mi SE 11.5 mph - N/A   Overcast
8:30 PM 44.6 °F 39.2 °F 42.8 °F 93% 30.01 in 2.5 mi SE 10.4 mph - N/A   Overcast
9:00 PM 44 °F - 42 °F 92% 30.03 in 3 mi ESE 11.2 mph - -   Mist
9:00 PM 44.6 °F 38.8 °F 42.8 °F 93% 30.01 in 2.8 mi SE 11.5 mph - N/A   Overcast
9:30 PM 44.6 °F 39.2 °F 42.8 °F 93% 30.01 in 2.8 mi SE 10.4 mph - N/A   Overcast
10:00 PM 43 °F - 42 °F 96% 30.03 in 3 mi ESE 8.9 mph - -   Mist
10:00 PM 42.8 °F 37.5 °F 42.8 °F 100% 30.01 in 2.8 mi ESE 9.2 mph - N/A   Overcast
10:30 PM 44.6 °F 39.2 °F 42.8 °F 93% 30.01 in 2.8 mi SE 10.4 mph - N/A   Overcast
11:00 PM 44 °F - 42 °F 90% 30.02 in 3 mi SE 11.2 mph - -   Mist
11:00 PM 44.6 °F 38.8 °F 41.0 °F 87% 30.01 in 3.1 mi SSE 11.5 mph - N/A   Overcast
11:30 PM 44.6 °F 40.2 °F 42.8 °F 93% 29.98 in 3.1 mi ESE 8.1 mph - N/A   Overcast